Regional Weather Roundup
Issued by NWS

Home | Current Version | Previous Version | Graphics & Text | Print | Product List | Glossary On
Versions: 1 2 3 4 5 6 7 8 9 10 11 12 13 14 15 16 17 18 19 20 21 22 23 24 25 26 27 28 29 30 31 32 33 34 35 36 37 38 39 40 41 42 43 44 45 46 47 48 49 50
000
ASUS43 KIND 282209
RWRIN

WEATHER ROUNDUP FOR INDIANA
NATIONAL WEATHER SERVICE INDIANAPOLIS IN
600 PM EDT FRI AUG 28 2015

NOTE: "FAIR" INDICATES FEW OR NO CLOUDS BELOW 12,000 FEET WITH NO
SIGNIFICANT WEATHER AND/OR OBSTRUCTIONS TO VISIBILITY.

* - STATION DOES NOT REPORT WEATHER SUCH AS PRECIPITATION OR FOG.

+ - STATION NOT QUALITY CONTROLLED BY THE NATIONAL WEATHER SERVICE.
    USE DATA WITH CAUTION...ESPECIALLY DEWPOINT AND RELATIVE
    HUMIDITY OBSERVATIONS.

INZ001>003-010>013-019-020-282300-
NORTHWEST INDIANA

CITY           SKY/WX    TMP DP  RH WIND       PRES   REMARKS
GARY /AIRPORT/ CLOUDY    75  61  60 CALM      30.09F
KNOX *+        CLOUDY    73  59  60 S5        30.09F
LA PORTE +     CLOUDY    75  65  71 CALM      30.10F
MICHIGAN CITY+ CLOUDY    73  63  68 CALM      30.10S
MONTICELLO +   PTSUNNY   76  60  56 SE5       30.10F
RENSSELAER +   CLOUDY    73  63  68 SE3       30.09F
VALPARAISO     CLOUDY    75  62  64 CALM      30.10F

$$

LMZ046-743>745-282300-
SOUTHERN LAKE MICHIGAN

STATION/POSITION TIME  TEMP    WIND        PRES    WAVE
                       AIR SEA DIR/SP/G            HT
                 (UTC) (F)     (DEG/KT/KT) (MB)    (FT)
BURNS HARBOR     2100   74     210/  6/  7 1019.3
MICHIGAN CITY    2100   71      30/  4/  4   N/A
5NW MICH CITY    2200   71 72   80/  4/  6   N/A     0

$$

INZ004-005-014>016-021>024-282300-
NORTH CENTRAL INDIANA

CITY           SKY/WX    TMP DP  RH WIND       PRES   REMARKS
ELKHART        CLOUDY    75  59  57 CALM      30.11F
GOSHEN         CLOUDY    76  61  59 S7        30.11F
LOGANSPORT +   CLOUDY    75  52  43 S3        30.12S
PERU/GRISSOM   CLOUDY    77  58  51 SE6       30.10F
ROCHESTER +    CLOUDY    79  59  50 SE6       30.11F
SOUTH BEND     CLOUDY    75  60  59 SW3       30.10F
WARSAW +       CLOUDY    73  59  60 CALM      30.12S

$$

INZ006>009-017-018-025>027-282300-
NORTHEAST INDIANA

CITY           SKY/WX    TMP DP  RH WIND       PRES   REMARKS
ANGOLA *+      SUNNY     75  66  73 SW3       30.13F
AUBURN +       CLOUDY    75  55  50 CALM      30.14F
FORT WAYNE     PTSUNNY   76  60  57 S5        30.13F
HUNTINGTON +   PTSUNNY   75  52  43 S3        30.12F

$$

INZ028-029-035-036-043>045-051>053-282300-
WEST CENTRAL INDIANA

CITY           SKY/WX    TMP DP  RH WIND       PRES   REMARKS
CRAWFORDSVL +  SUNNY     75  51  41 S8        30.10F
GREENCASTLE +  MOSUNNY   77  52  41 SE8       30.11S
LAFAYETTE      MOSUNNY   77  56  48 SE5       30.08F
TERRE HAUTE    SUNNY     80  57  45 E10       30.08F

$$

INZ030>032-037>040-046>048-054>057-064-065-282300-
CENTRAL INDIANA

CITY           SKY/WX    TMP DP  RH WIND       PRES   REMARKS
COLUMBUS       SUNNY     77  50  38 SE6       30.12S
FRANKFORT +    PTSUNNY   76  61  57 E7        30.12F
GREENWOOD *+   PTSUNNY   79  52  38 E8        30.11F
INDIANAPOLIS   PTSUNNY   78  53  41 E10       30.09F
-EAGLE CREEK   MOSUNNY   78  55  44 SE8       30.10F
KOKOMO *+      CLOUDY    75  59  57 SE5       30.11F
MARION +       PTSUNNY   76  46  34 SE3       30.12F
MT COMFORT *+  PTSUNNY   77  50  38 SE5       30.12F
SHELBYVILLE    PTSUNNY   77  57  50 SE6       30.11F
ZIONSVILLE +   PTSUNNY   78  55  45 SE5       30.11F

$$

INZ033-034-041-042-049-050-058-059-282300-
EAST CENTRAL INDIANA

CITY           SKY/WX    TMP DP  RH WIND       PRES   REMARKS
MUNCIE         PTSUNNY   75  56  51 SE6       30.12F

$$

INZ060-061-067>069-081>083-085>088-282300-
SOUTHWEST INDIANA

CITY           SKY/WX    TMP DP  RH WIND       PRES   REMARKS
EVANSVILLE     SUNNY     82  60  47 S6        30.06F
HUNTINGBURG *+ SUNNY     81  61  50 SE3       30.08F
WASHINGTON +   SUNNY     81  51  35 SE7       30.06F

$$

INZ062-063-066-070>080-084-089>092-282300-
SOUTH CENTRAL AND SOUTHEAST INDIANA

CITY           SKY/WX    TMP DP  RH WIND       PRES   REMARKS
BLOOMINGTON    MOSUNNY   78  58  49 SE9       30.10F
MADISON *+     PTSUNNY   79  54  41 CALM      30.13S
NORTH VERNON + PTSUNNY   81  55  41 CALM      30.12F
SEYMOUR +      MOSUNNY   82  59  44 SE5       30.10S

$$




USA.gov is the U.S. government's official web portal to all federal, state and local government web resources and services.